Year,Month,Day,Hour,Minute,Value (Times are PST for temperature in C)
2015,06,23,00,00,13.50
2015,06,23,00,01,13.50
2015,06,23,00,02,13.50
2015,06,23,00,03,13.50
2015,06,23,00,04,13.60
2015,06,23,00,05,13.60
2015,06,23,00,06,13.70
2015,06,23,00,07,13.70
2015,06,23,00,08,13.70
2015,06,23,00,09,13.80
2015,06,23,00,10,13.80
2015,06,23,00,11,13.80
2015,06,23,00,12,13.80
2015,06,23,00,13,13.80
2015,06,23,00,14,13.80
2015,06,23,00,15,13.80
2015,06,23,00,16,13.80
2015,06,23,00,17,13.80
2015,06,23,00,18,13.80
2015,06,23,00,19,13.90
2015,06,23,00,20,13.80
2015,06,23,00,21,13.80
2015,06,23,00,22,13.80
2015,06,23,00,23,13.80
2015,06,23,00,24,13.90
2015,06,23,00,25,13.90
2015,06,23,00,26,13.90
2015,06,23,00,27,13.90
2015,06,23,00,28,13.80
2015,06,23,00,29,13.80
2015,06,23,00,30,13.80
2015,06,23,00,31,13.80
2015,06,23,00,32,13.80
2015,06,23,00,33,13.80
2015,06,23,00,34,13.80
2015,06,23,00,35,13.80
2015,06,23,00,36,13.80
2015,06,23,00,37,13.80
2015,06,23,00,38,13.80
2015,06,23,00,39,13.80
2015,06,23,00,40,13.80
2015,06,23,00,41,13.80
2015,06,23,00,42,13.80
2015,06,23,00,43,13.80
2015,06,23,00,44,13.80
2015,06,23,00,45,13.80
2015,06,23,00,46,13.80
2015,06,23,00,47,13.70
2015,06,23,00,48,13.70
2015,06,23,00,49,13.70
2015,06,23,00,50,13.70
2015,06,23,00,51,13.70
2015,06,23,00,52,13.70
2015,06,23,00,53,13.70
2015,06,23,00,54,13.70
2015,06,23,00,55,13.70
2015,06,23,00,56,13.60
2015,06,23,00,57,13.60
2015,06,23,00,58,13.60
2015,06,23,00,59,13.60
2015,06,23,01,00,13.60
2015,06,23,01,01,13.60
2015,06,23,01,02,13.60
2015,06,23,01,03,13.60
2015,06,23,01,04,13.60
2015,06,23,01,05,13.60
2015,06,23,01,06,13.60
2015,06,23,01,07,13.60
2015,06,23,01,08,13.60
2015,06,23,01,09,13.60
2015,06,23,01,10,13.60
2015,06,23,01,11,13.50
2015,06,23,01,12,13.50
2015,06,23,01,13,13.50
2015,06,23,01,14,13.50
2015,06,23,01,15,13.50
2015,06,23,01,16,13.50
2015,06,23,01,17,13.40
2015,06,23,01,18,13.40
2015,06,23,01,19,13.40
2015,06,23,01,20,13.40
2015,06,23,01,21,13.40
2015,06,23,01,22,13.40
2015,06,23,01,23,13.40
2015,06,23,01,24,13.40
2015,06,23,01,25,13.30
2015,06,23,01,26,13.30
2015,06,23,01,27,13.30
2015,06,23,01,28,13.30
2015,06,23,01,29,13.30
2015,06,23,01,30,13.30
2015,06,23,01,31,13.20
2015,06,23,01,32,13.20
2015,06,23,01,33,13.20
2015,06,23,01,34,13.20
2015,06,23,01,35,13.20
2015,06,23,01,36,13.20
2015,06,23,01,37,13.10
2015,06,23,01,38,13.10
2015,06,23,01,39,13.10
2015,06,23,01,40,13.10
2015,06,23,01,41,13.10
2015,06,23,01,42,13.00
2015,06,23,01,43,13.00
2015,06,23,01,44,12.90
2015,06,23,01,45,12.90
2015,06,23,01,46,12.90
2015,06,23,01,47,12.90
2015,06,23,01,48,12.90
2015,06,23,01,49,12.90
2015,06,23,01,50,12.90
2015,06,23,01,51,12.80
2015,06,23,01,52,12.80
2015,06,23,01,53,12.80
2015,06,23,01,54,12.70
2015,06,23,01,55,12.70
2015,06,23,01,56,12.70
2015,06,23,01,57,12.60
2015,06,23,01,58,12.60
2015,06,23,01,59,12.60
2015,06,23,02,00,12.50
2015,06,23,02,01,12.50
2015,06,23,02,02,12.40
2015,06,23,02,03,12.40
2015,06,23,02,04,12.40
2015,06,23,02,05,12.30
2015,06,23,02,06,12.30
2015,06,23,02,07,12.30
2015,06,23,02,08,12.20
2015,06,23,02,09,12.20
2015,06,23,02,10,12.20
2015,06,23,02,11,12.10
2015,06,23,02,12,12.10
2015,06,23,02,13,12.10
2015,06,23,02,14,12.10
2015,06,23,02,15,12.10
2015,06,23,02,16,12.10
2015,06,23,02,17,12.00
2015,06,23,02,18,12.00
2015,06,23,02,19,11.90
2015,06,23,02,20,11.90
2015,06,23,02,21,11.90
2015,06,23,02,22,11.80
2015,06,23,02,23,11.80
2015,06,23,02,24,11.80
2015,06,23,02,25,11.70
2015,06,23,02,26,11.70
2015,06,23,02,27,11.70
2015,06,23,02,28,11.70
2015,06,23,02,29,11.60
2015,06,23,02,30,11.60
2015,06,23,02,31,11.60
2015,06,23,02,32,11.60
2015,06,23,02,33,11.50
2015,06,23,02,34,11.50
2015,06,23,02,35,11.50
2015,06,23,02,36,11.50
2015,06,23,02,37,11.50
2015,06,23,02,38,11.40
2015,06,23,02,39,11.40
2015,06,23,02,40,11.40
2015,06,23,02,41,11.30
2015,06,23,02,42,11.30
2015,06,23,02,43,11.30
2015,06,23,02,44,11.30
2015,06,23,02,45,11.20
2015,06,23,02,46,11.20
2015,06,23,02,47,11.20
2015,06,23,02,48,11.20
2015,06,23,02,49,11.20
2015,06,23,02,50,11.20
2015,06,23,02,51,11.20
2015,06,23,02,52,11.20
2015,06,23,02,53,11.20
2015,06,23,02,54,11.20
2015,06,23,02,55,11.20
2015,06,23,02,56,11.10
2015,06,23,02,57,11.10
2015,06,23,02,58,11.10
2015,06,23,02,59,11.10
2015,06,23,03,00,11.10
2015,06,23,03,01,11.10
2015,06,23,03,02,11.10
2015,06,23,03,03,11.10
2015,06,23,03,04,11.10
2015,06,23,03,05,11.10
2015,06,23,03,06,11.10
2015,06,23,03,07,11.10
2015,06,23,03,08,11.00
2015,06,23,03,09,11.00
2015,06,23,03,10,10.90
2015,06,23,03,11,10.90
2015,06,23,03,12,10.90
2015,06,23,03,13,10.80
2015,06,23,03,14,10.80
2015,06,23,03,15,10.80
2015,06,23,03,16,10.80
2015,06,23,03,17,10.70
2015,06,23,03,18,10.70
2015,06,23,03,19,10.70
2015,06,23,03,20,10.70
2015,06,23,03,21,10.70
2015,06,23,03,22,10.70
2015,06,23,03,23,10.70
2015,06,23,03,24,10.60
2015,06,23,03,25,10.60
2015,06,23,03,26,10.60
2015,06,23,03,27,10.60
2015,06,23,03,28,10.60
2015,06,23,03,29,10.60
2015,06,23,03,30,10.50
2015,06,23,03,31,10.50
2015,06,23,03,32,10.50
2015,06,23,03,33,10.50
2015,06,23,03,34,10.40
2015,06,23,03,35,10.40
2015,06,23,03,36,10.40
2015,06,23,03,37,10.40
2015,06,23,03,38,10.40
2015,06,23,03,39,10.40
2015,06,23,03,40,10.40
2015,06,23,03,41,10.30
2015,06,23,03,42,10.30
2015,06,23,03,43,10.30
2015,06,23,03,44,10.30
2015,06,23,03,45,10.30
2015,06,23,03,46,10.30
2015,06,23,03,47,10.30
2015,06,23,03,48,10.30
2015,06,23,03,49,10.30
2015,06,23,03,50,10.30
2015,06,23,03,51,10.30
2015,06,23,03,52,10.30
2015,06,23,03,53,10.30
2015,06,23,03,54,10.30
2015,06,23,03,55,10.30
2015,06,23,03,56,10.30
2015,06,23,03,57,10.30
2015,06,23,03,58,10.30
2015,06,23,03,59,10.30
2015,06,23,04,00,10.30
2015,06,23,04,01,10.30
2015,06,23,04,02,10.30
2015,06,23,04,03,10.30
2015,06,23,04,04,10.30
2015,06,23,04,05,10.30
2015,06,23,04,06,10.30
2015,06,23,04,07,10.30
2015,06,23,04,08,10.30
2015,06,23,04,09,10.30
2015,06,23,04,10,10.30
2015,06,23,04,11,10.20
2015,06,23,04,12,10.20
2015,06,23,04,13,10.20
2015,06,23,04,14,10.20
2015,06,23,04,15,10.10
2015,06,23,04,16,10.10
2015,06,23,04,17,10.10
2015,06,23,04,18,10.10
2015,06,23,04,19,10.10
2015,06,23,04,20,10.00
2015,06,23,04,21,10.00
2015,06,23,04,22,10.00
2015,06,23,04,23,10.00
2015,06,23,04,24,10.00
2015,06,23,04,25,10.00
2015,06,23,04,26,10.00
2015,06,23,04,27,10.00
2015,06,23,04,28,10.00
2015,06,23,04,29,10.00
2015,06,23,04,30,9.90
2015,06,23,04,31,9.90
2015,06,23,04,32,9.90
2015,06,23,04,33,9.90
2015,06,23,04,34,9.90
2015,06,23,04,35,9.90
2015,06,23,04,36,9.80
2015,06,23,04,37,9.80
2015,06,23,04,38,9.80
2015,06,23,04,39,9.80
2015,06,23,04,40,9.80
2015,06,23,04,41,9.80
2015,06,23,04,42,9.80
2015,06,23,04,43,9.80
2015,06,23,04,44,9.80
2015,06,23,04,45,9.80
2015,06,23,04,46,9.80
2015,06,23,04,47,9.80
2015,06,23,04,48,9.80
2015,06,23,04,49,9.70
2015,06,23,04,50,9.70
2015,06,23,04,51,9.70
2015,06,23,04,52,9.70
2015,06,23,04,53,9.70
2015,06,23,04,54,9.70
2015,06,23,04,55,9.70
2015,06,23,04,56,9.70
2015,06,23,04,57,9.70
2015,06,23,04,58,9.70
2015,06,23,04,59,9.70
2015,06,23,05,00,9.70
2015,06,23,05,01,9.70
2015,06,23,05,02,9.60
2015,06,23,05,03,9.60
2015,06,23,05,04,9.60
2015,06,23,05,05,9.60
2015,06,23,05,06,9.60
2015,06,23,05,07,9.60
2015,06,23,05,08,9.50
2015,06,23,05,09,9.50
2015,06,23,05,10,9.50
2015,06,23,05,11,9.50
2015,06,23,05,12,9.50
2015,06,23,05,13,9.50
2015,06,23,05,14,9.40
2015,06,23,05,15,9.40
2015,06,23,05,16,9.40
2015,06,23,05,17,9.40
2015,06,23,05,18,9.40
2015,06,23,05,19,9.40
2015,06,23,05,20,9.40
2015,06,23,05,21,9.40
2015,06,23,05,22,9.30
2015,06,23,05,23,9.30
2015,06,23,05,24,9.30
2015,06,23,05,25,9.30
2015,06,23,05,26,9.30
2015,06,23,05,27,9.30
2015,06,23,05,28,9.30
2015,06,23,05,29,9.30
2015,06,23,05,30,9.30
2015,06,23,05,31,9.30
2015,06,23,05,32,9.30
2015,06,23,05,33,9.30
2015,06,23,05,34,9.30
2015,06,23,05,35,9.30
2015,06,23,05,36,9.30
2015,06,23,05,37,9.30
2015,06,23,05,38,9.30
2015,06,23,05,39,9.30
2015,06,23,05,40,9.30
2015,06,23,05,41,9.30
2015,06,23,05,42,9.20
2015,06,23,05,43,9.20
2015,06,23,05,44,9.20
2015,06,23,05,45,9.20
2015,06,23,05,46,9.20
2015,06,23,05,47,9.20
2015,06,23,05,48,9.20
2015,06,23,05,49,9.20
2015,06,23,05,50,9.20
2015,06,23,05,51,9.20
2015,06,23,05,52,9.20
2015,06,23,05,53,9.20
2015,06,23,05,54,9.20
2015,06,23,05,55,9.20
2015,06,23,05,56,9.20
2015,06,23,05,57,9.20
2015,06,23,05,58,9.20
2015,06,23,05,59,9.20
2015,06,23,06,00,9.20
2015,06,23,06,01,9.20
2015,06,23,06,02,9.20
2015,06,23,06,03,9.20
2015,06,23,06,04,9.20
2015,06,23,06,05,9.20
2015,06,23,06,06,9.20
2015,06,23,06,07,9.30
2015,06,23,06,08,9.30
2015,06,23,06,09,9.30
2015,06,23,06,10,9.30
2015,06,23,06,11,9.30
2015,06,23,06,12,9.30
2015,06,23,06,13,9.30
2015,06,23,06,14,9.30
2015,06,23,06,15,9.30
2015,06,23,06,16,9.30
2015,06,23,06,17,9.30
2015,06,23,06,18,9.30
2015,06,23,06,19,9.40
2015,06,23,06,20,9.40
2015,06,23,06,21,9.50
2015,06,23,06,22,9.50
2015,06,23,06,23,9.60
2015,06,23,06,24,9.60
2015,06,23,06,25,9.70
2015,06,23,06,26,9.70
2015,06,23,06,27,9.80
2015,06,23,06,28,9.80
2015,06,23,06,29,9.90
2015,06,23,06,30,10.00
2015,06,23,06,31,10.00
2015,06,23,06,32,10.10
2015,06,23,06,33,10.20
2015,06,23,06,34,10.20
2015,06,23,06,35,10.30
2015,06,23,06,36,10.40
2015,06,23,06,37,10.40
2015,06,23,06,38,10.50
2015,06,23,06,39,10.60
2015,06,23,06,40,10.70
2015,06,23,06,41,10.80
2015,06,23,06,42,10.90
2015,06,23,06,43,10.90
2015,06,23,06,44,11.00
2015,06,23,06,45,11.10
2015,06,23,06,46,11.10
2015,06,23,06,47,11.20
2015,06,23,06,48,11.20
2015,06,23,06,49,11.20
2015,06,23,06,50,11.20
2015,06,23,06,51,11.30
2015,06,23,06,52,11.30
2015,06,23,06,53,11.30
2015,06,23,06,54,11.30
2015,06,23,06,55,11.30
2015,06,23,06,56,11.40
2015,06,23,06,57,11.40
2015,06,23,06,58,11.50
2015,06,23,06,59,11.50
2015,06,23,07,00,11.60
2015,06,23,07,01,11.60
2015,06,23,07,02,11.70
2015,06,23,07,03,11.80
2015,06,23,07,04,11.80
2015,06,23,07,05,11.90
2015,06,23,07,06,12.00
2015,06,23,07,07,12.10
2015,06,23,07,08,12.20
2015,06,23,07,09,12.20
2015,06,23,07,10,12.30
2015,06,23,07,11,12.30
2015,06,23,07,12,12.30
2015,06,23,07,13,12.40
2015,06,23,07,14,12.40
2015,06,23,07,15,12.50
2015,06,23,07,16,12.50
2015,06,23,07,17,12.50
2015,06,23,07,18,12.50
2015,06,23,07,19,12.60
2015,06,23,07,20,12.60
2015,06,23,07,21,12.70
2015,06,23,07,22,12.70
2015,06,23,07,23,12.70
2015,06,23,07,24,12.70
2015,06,23,07,25,12.70
2015,06,23,07,26,12.70
2015,06,23,07,27,12.70
2015,06,23,07,28,12.70
2015,06,23,07,29,12.70
2015,06,23,07,30,12.70
2015,06,23,07,31,12.70
2015,06,23,07,32,12.70
2015,06,23,07,33,12.80
2015,06,23,07,34,12.80
2015,06,23,07,35,12.80
2015,06,23,07,36,12.80
2015,06,23,07,37,12.90
2015,06,23,07,38,13.00
2015,06,23,07,39,13.10
2015,06,23,07,40,13.10
2015,06,23,07,41,13.20
2015,06,23,07,42,13.20
2015,06,23,07,43,13.30
2015,06,23,07,44,13.30
2015,06,23,07,45,13.40
2015,06,23,07,46,13.50
2015,06,23,07,47,13.60
2015,06,23,07,48,13.70
2015,06,23,07,49,13.80
2015,06,23,07,50,13.90
2015,06,23,07,51,14.00
2015,06,23,07,52,14.00
2015,06,23,07,53,14.10
2015,06,23,07,54,14.20
2015,06,23,07,55,14.30
2015,06,23,07,56,14.30
2015,06,23,07,57,14.40
2015,06,23,07,58,14.40
2015,06,23,07,59,14.50
2015,06,23,08,00,14.60
2015,06,23,08,01,14.60
2015,06,23,08,02,14.70
2015,06,23,08,03,14.80
2015,06,23,08,04,14.90
2015,06,23,08,05,14.90
2015,06,23,08,06,15.00
2015,06,23,08,07,15.10
2015,06,23,08,08,15.10
2015,06,23,08,09,15.20
2015,06,23,08,10,15.20
2015,06,23,08,11,15.20
2015,06,23,08,12,15.20
2015,06,23,08,13,15.20
2015,06,23,08,14,15.20
2015,06,23,08,15,15.30
2015,06,23,08,16,15.20
2015,06,23,08,17,15.20
2015,06,23,08,18,15.20
2015,06,23,08,19,15.20
2015,06,23,08,20,15.20
2015,06,23,08,21,15.20
2015,06,23,08,22,15.30
2015,06,23,08,23,15.30
2015,06,23,08,24,15.40
2015,06,23,08,25,15.40
2015,06,23,08,26,15.50
2015,06,23,08,27,15.50
2015,06,23,08,28,15.50
2015,06,23,08,29,15.50
2015,06,23,08,30,15.50
2015,06,23,08,31,15.50
2015,06,23,08,32,15.40
2015,06,23,08,33,15.30
2015,06,23,08,34,15.30
2015,06,23,08,35,15.30
2015,06,23,08,36,15.30
2015,06,23,08,37,15.30
2015,06,23,08,38,15.30
2015,06,23,08,39,15.30
2015,06,23,08,40,15.30
2015,06,23,08,41,15.30
2015,06,23,08,42,15.30
2015,06,23,08,43,15.30
2015,06,23,08,44,15.30
2015,06,23,08,45,15.30
2015,06,23,08,46,15.30
2015,06,23,08,47,15.20
2015,06,23,08,48,15.10
2015,06,23,08,49,15.10
2015,06,23,08,50,15.10
2015,06,23,08,51,15.10
2015,06,23,08,52,15.10
2015,06,23,08,53,15.10
2015,06,23,08,54,15.10
2015,06,23,08,55,15.00
2015,06,23,08,56,15.00
2015,06,23,08,57,15.00
2015,06,23,08,58,14.90
2015,06,23,08,59,14.90
2015,06,23,09,00,14.90
2015,06,23,09,01,15.00
2015,06,23,09,02,15.10
2015,06,23,09,03,15.10
2015,06,23,09,04,15.20
2015,06,23,09,05,15.30
2015,06,23,09,06,15.30
2015,06,23,09,07,15.40
2015,06,23,09,08,15.50
2015,06,23,09,09,15.60
2015,06,23,09,10,15.60
2015,06,23,09,11,15.70
2015,06,23,09,12,15.70
2015,06,23,09,13,15.70
2015,06,23,09,14,15.80
2015,06,23,09,15,15.90
2015,06,23,09,16,16.00
2015,06,23,09,17,16.00
2015,06,23,09,18,16.00
2015,06,23,09,19,16.00
2015,06,23,09,20,16.00
2015,06,23,09,21,16.00
2015,06,23,09,22,16.10
2015,06,23,09,23,16.10
2015,06,23,09,24,16.20
2015,06,23,09,25,16.20
2015,06,23,09,26,16.30
2015,06,23,09,27,16.40
2015,06,23,09,28,16.40
2015,06,23,09,29,16.40
2015,06,23,09,30,16.50
2015,06,23,09,31,16.60
2015,06,23,09,32,16.70
2015,06,23,09,33,16.70
2015,06,23,09,34,16.70
2015,06,23,09,35,16.70
2015,06,23,09,36,16.60
2015,06,23,09,37,16.60
2015,06,23,09,38,16.60
2015,06,23,09,39,16.60
2015,06,23,09,40,16.50
2015,06,23,09,41,16.50
2015,06,23,09,42,16.50
2015,06,23,09,43,16.50
2015,06,23,09,44,16.60
2015,06,23,09,45,16.60
2015,06,23,09,46,16.60
2015,06,23,09,47,16.70
2015,06,23,09,48,16.80
2015,06,23,09,49,16.80
2015,06,23,09,50,16.90
2015,06,23,09,51,17.00
2015,06,23,09,52,17.10
2015,06,23,09,53,17.20
2015,06,23,09,54,17.30
2015,06,23,09,55,17.40
2015,06,23,09,56,17.50
2015,06,23,09,57,17.50
2015,06,23,09,58,17.40
2015,06,23,09,59,17.40
2015,06,23,10,00,17.30
2015,06,23,10,01,17.30
2015,06,23,10,02,17.30
2015,06,23,10,03,17.30
2015,06,23,10,04,17.30
2015,06,23,10,05,17.30
2015,06,23,10,06,17.30
2015,06,23,10,07,17.20
2015,06,23,10,08,17.30
2015,06,23,10,09,17.30
2015,06,23,10,10,17.40
2015,06,23,10,11,17.50
2015,06,23,10,12,17.50
2015,06,23,10,13,17.60
2015,06,23,10,14,17.60
2015,06,23,10,15,17.60
2015,06,23,10,16,17.60
2015,06,23,10,17,17.70
2015,06,23,10,18,17.80
2015,06,23,10,19,17.90
2015,06,23,10,20,18.00
2015,06,23,10,21,18.10
2015,06,23,10,22,18.10
2015,06,23,10,23,18.20
2015,06,23,10,24,18.20
2015,06,23,10,25,18.30
2015,06,23,10,26,18.30
2015,06,23,10,27,18.40
2015,06,23,10,28,18.60
2015,06,23,10,29,18.70
2015,06,23,10,30,18.80
2015,06,23,10,31,18.80
2015,06,23,10,32,18.90
2015,06,23,10,33,18.80
2015,06,23,10,34,18.80
2015,06,23,10,35,18.70
2015,06,23,10,36,18.60
2015,06,23,10,37,18.60
2015,06,23,10,38,18.60
2015,06,23,10,39,18.70
2015,06,23,10,40,18.70
2015,06,23,10,41,18.60
2015,06,23,10,42,18.60
2015,06,23,10,43,18.60
2015,06,23,10,44,18.60
2015,06,23,10,45,18.50
2015,06,23,10,46,18.50
2015,06,23,10,47,18.50
2015,06,23,10,48,18.50
2015,06,23,10,49,18.50
2015,06,23,10,50,18.60
2015,06,23,10,51,18.60
2015,06,23,10,52,18.70
2015,06,23,10,53,18.70
2015,06,23,10,54,18.80
2015,06,23,10,55,18.80
2015,06,23,10,56,18.90
2015,06,23,10,57,19.00
2015,06,23,10,58,19.00
2015,06,23,10,59,19.10
2015,06,23,11,00,19.20
2015,06,23,11,01,19.40
2015,06,23,11,02,19.50
2015,06,23,11,03,19.70
2015,06,23,11,04,19.80
2015,06,23,11,05,19.90
2015,06,23,11,06,20.10
2015,06,23,11,07,20.20
2015,06,23,11,08,20.30
2015,06,23,11,09,20.40
2015,06,23,11,10,20.40
2015,06,23,11,11,20.40
2015,06,23,11,12,20.40
2015,06,23,11,13,20.40
2015,06,23,11,14,20.30
2015,06,23,11,15,20.20
2015,06,23,11,16,20.20
2015,06,23,11,17,20.10
2015,06,23,11,18,20.00
2015,06,23,11,19,20.00
2015,06,23,11,20,19.90
2015,06,23,11,21,19.90
2015,06,23,11,22,19.90
2015,06,23,11,23,20.00
2015,06,23,11,24,20.10
2015,06,23,11,25,20.20
2015,06,23,11,26,20.30
2015,06,23,11,27,20.30
2015,06,23,11,28,20.30
2015,06,23,11,29,20.30
2015,06,23,11,30,20.40
2015,06,23,11,31,20.40
2015,06,23,11,32,20.50
2015,06,23,11,33,20.60
2015,06,23,11,34,20.60
2015,06,23,11,35,20.70
2015,06,23,11,36,20.80
2015,06,23,11,37,20.80
2015,06,23,11,38,20.90
2015,06,23,11,39,20.90
2015,06,23,11,40,20.90
2015,06,23,11,41,21.00
2015,06,23,11,42,21.10
2015,06,23,11,43,21.10
2015,06,23,11,44,21.10
2015,06,23,11,45,21.10
2015,06,23,11,46,21.10
2015,06,23,11,47,21.20
2015,06,23,11,48,21.20
2015,06,23,11,49,21.20
2015,06,23,11,50,21.20
2015,06,23,11,51,21.20
2015,06,23,11,52,21.20
2015,06,23,11,53,21.20
2015,06,23,11,54,21.20
2015,06,23,11,55,21.20
2015,06,23,11,56,21.10
2015,06,23,11,57,21.10
2015,06,23,11,58,21.20
2015,06,23,11,59,21.20
2015,06,23,12,00,21.30
2015,06,23,12,01,21.40
2015,06,23,12,02,21.40
2015,06,23,12,03,21.50
2015,06,23,12,04,21.60
2015,06,23,12,05,21.60
2015,06,23,12,06,21.70
2015,06,23,12,07,21.70
2015,06,23,12,08,21.70
2015,06,23,12,09,21.80
2015,06,23,12,10,21.80
2015,06,23,12,11,21.80
2015,06,23,12,12,21.90
2015,06,23,12,13,21.90
2015,06,23,12,14,22.00
2015,06,23,12,15,22.10
2015,06,23,12,16,22.20
2015,06,23,12,17,22.20
2015,06,23,12,18,22.30
2015,06,23,12,19,22.30
2015,06,23,12,20,22.30
2015,06,23,12,21,22.30
2015,06,23,12,22,22.30
2015,06,23,12,23,22.30
2015,06,23,12,24,22.40
2015,06,23,12,25,22.50
2015,06,23,12,26,22.60
2015,06,23,12,27,22.70
2015,06,23,12,28,22.90
2015,06,23,12,29,22.90
2015,06,23,12,30,23.00
2015,06,23,12,31,23.10
2015,06,23,12,32,23.10
2015,06,23,12,33,23.00
2015,06,23,12,34,23.00
2015,06,23,12,35,22.90
2015,06,23,12,36,22.80
2015,06,23,12,37,22.70
2015,06,23,12,38,22.70
2015,06,23,12,39,22.80
2015,06,23,12,40,22.90
2015,06,23,12,41,23.00
2015,06,23,12,42,23.10
2015,06,23,12,43,23.20
2015,06,23,12,44,23.30
2015,06,23,12,45,23.30
2015,06,23,12,46,23.40
2015,06,23,12,47,23.50
2015,06,23,12,48,23.60
2015,06,23,12,49,23.70
2015,06,23,12,50,23.80
2015,06,23,12,51,23.80
2015,06,23,12,52,23.80
2015,06,23,12,53,23.80
2015,06,23,12,54,23.90
2015,06,23,12,55,24.00
2015,06,23,12,56,24.00
2015,06,23,12,57,24.00
2015,06,23,12,58,24.00
2015,06,23,12,59,24.00
2015,06,23,13,00,24.00
2015,06,23,13,01,24.00
2015,06,23,13,02,24.10
2015,06,23,13,03,24.20
2015,06,23,13,04,24.30
2015,06,23,13,05,24.30
2015,06,23,13,06,24.20
2015,06,23,13,07,24.20
2015,06,23,13,08,24.20
2015,06,23,13,09,24.20
2015,06,23,13,10,24.30
2015,06,23,13,11,24.30
2015,06,23,13,12,24.30
2015,06,23,13,13,24.30
2015,06,23,13,14,24.30
2015,06,23,13,15,24.40
2015,06,23,13,16,24.40
2015,06,23,13,17,24.50
2015,06,23,13,18,24.50
2015,06,23,13,19,24.60
2015,06,23,13,20,24.70
2015,06,23,13,21,24.70
2015,06,23,13,22,24.80
2015,06,23,13,23,24.80
2015,06,23,13,24,24.80
2015,06,23,13,25,24.70
2015,06,23,13,26,24.60
2015,06,23,13,27,24.40
2015,06,23,13,28,24.40
2015,06,23,13,29,24.40
2015,06,23,13,30,24.50
2015,06,23,13,31,24.50
2015,06,23,13,32,24.70
2015,06,23,13,33,24.70
2015,06,23,13,34,24.70
2015,06,23,13,35,24.70
2015,06,23,13,36,24.70
2015,06,23,13,37,24.70
2015,06,23,13,38,24.80
2015,06,23,13,39,24.80
2015,06,23,13,40,24.80
2015,06,23,13,41,24.90
2015,06,23,13,42,25.10
2015,06,23,13,43,25.30
2015,06,23,13,44,25.40
2015,06,23,13,45,25.40
2015,06,23,13,46,25.50
2015,06,23,13,47,25.50
2015,06,23,13,48,25.50
2015,06,23,13,49,25.80
2015,06,23,13,50,25.80
2015,06,23,13,51,25.80
2015,06,23,13,52,25.70
2015,06,23,13,53,25.60
2015,06,23,13,54,25.60
2015,06,23,13,55,25.60
2015,06,23,13,56,25.60
2015,06,23,13,57,25.70
2015,06,23,13,58,25.70
2015,06,23,13,59,25.70
2015,06,23,14,00,25.70
2015,06,23,14,01,25.80
2015,06,23,14,02,25.80
2015,06,23,14,03,25.70
2015,06,23,14,04,25.70
2015,06,23,14,05,25.60
2015,06,23,14,06,25.60
2015,06,23,14,07,25.60
2015,06,23,14,08,25.70
2015,06,23,14,09,25.70
2015,06,23,14,10,25.70
2015,06,23,14,11,25.60
2015,06,23,14,12,25.60
2015,06,23,14,13,25.60
2015,06,23,14,14,25.60
2015,06,23,14,15,25.70
2015,06,23,14,16,25.70
2015,06,23,14,17,25.70
2015,06,23,14,18,25.80
2015,06,23,14,19,25.70
2015,06,23,14,20,25.70
2015,06,23,14,21,25.70
2015,06,23,14,22,25.60
2015,06,23,14,23,25.60
2015,06,23,14,24,25.60
2015,06,23,14,25,25.70
2015,06,23,14,26,25.80
2015,06,23,14,27,25.90
2015,06,23,14,28,26.00
2015,06,23,14,29,26.00
2015,06,23,14,30,26.10
2015,06,23,14,31,26.00
2015,06,23,14,32,25.90
2015,06,23,14,33,25.90
2015,06,23,14,34,25.80
2015,06,23,14,35,25.80
2015,06,23,14,36,25.70
2015,06,23,14,37,25.70
2015,06,23,14,38,25.60
2015,06,23,14,39,25.60
2015,06,23,14,40,25.60
2015,06,23,14,41,25.60
2015,06,23,14,42,25.70
2015,06,23,14,43,25.60
2015,06,23,14,44,25.70
2015,06,23,14,45,25.70
2015,06,23,14,46,25.80
2015,06,23,14,47,25.90
2015,06,23,14,48,25.90
2015,06,23,14,49,26.00
2015,06,23,14,50,26.00
2015,06,23,14,51,26.10
2015,06,23,14,52,26.20
2015,06,23,14,53,26.20
2015,06,23,14,54,26.40
2015,06,23,14,55,26.40
2015,06,23,14,56,26.50
2015,06,23,14,57,26.50
2015,06,23,14,58,26.60
2015,06,23,14,59,26.60
2015,06,23,15,00,26.60
2015,06,23,15,01,26.60
2015,06,23,15,02,26.50
2015,06,23,15,03,26.40
2015,06,23,15,04,26.30
2015,06,23,15,05,26.30
2015,06,23,15,06,26.40
2015,06,23,15,07,26.50
2015,06,23,15,08,26.50
2015,06,23,15,09,26.60
2015,06,23,15,10,26.60
2015,06,23,15,11,26.60
2015,06,23,15,12,26.70
2015,06,23,15,13,26.70
2015,06,23,15,14,26.80
2015,06,23,15,15,26.80
2015,06,23,15,16,26.70
2015,06,23,15,17,26.60
2015,06,23,15,18,26.60
2015,06,23,15,19,26.60
2015,06,23,15,20,26.60
2015,06,23,15,21,26.60
2015,06,23,15,22,26.60
2015,06,23,15,23,26.50
2015,06,23,15,24,26.30
2015,06,23,15,25,26.30
2015,06,23,15,26,26.30
2015,06,23,15,27,26.20
2015,06,23,15,28,26.10
2015,06,23,15,29,26.10
2015,06,23,15,30,26.10
2015,06,23,15,31,26.10
2015,06,23,15,32,26.20
2015,06,23,15,33,26.30
2015,06,23,15,34,26.30
2015,06,23,15,35,26.30
2015,06,23,15,36,26.20
2015,06,23,15,37,26.10
2015,06,23,15,38,26.10
2015,06,23,15,39,25.90
2015,06,23,15,40,25.90
2015,06,23,15,41,25.80
2015,06,23,15,42,25.70
2015,06,23,15,43,25.70
2015,06,23,15,44,25.60
2015,06,23,15,45,25.60
2015,06,23,15,46,25.60
2015,06,23,15,47,25.60
2015,06,23,15,48,25.60
2015,06,23,15,49,25.60
2015,06,23,15,50,25.70
2015,06,23,15,51,25.70
2015,06,23,15,52,25.60
2015,06,23,15,53,25.60
2015,06,23,15,54,25.70
2015,06,23,15,55,25.70
2015,06,23,15,56,25.70
2015,06,23,15,57,25.70
2015,06,23,15,58,25.70
2015,06,23,15,59,25.70
2015,06,23,16,00,25.60
2015,06,23,16,01,25.60
2015,06,23,16,02,25.70
2015,06,23,16,03,25.70
2015,06,23,16,04,25.80
2015,06,23,16,05,25.80
2015,06,23,16,06,25.90
2015,06,23,16,07,25.90
2015,06,23,16,08,25.90
2015,06,23,16,09,25.90
2015,06,23,16,10,25.90
2015,06,23,16,11,25.80
2015,06,23,16,12,25.70
2015,06,23,16,13,25.70
2015,06,23,16,14,25.70
2015,06,23,16,15,25.60
2015,06,23,16,16,25.50
2015,06,23,16,17,25.40
2015,06,23,16,18,25.20
2015,06,23,16,19,25.10
2015,06,23,16,20,25.10
2015,06,23,16,21,25.10
2015,06,23,16,22,25.10
2015,06,23,16,23,25.10
2015,06,23,16,24,25.10
2015,06,23,16,25,25.10
2015,06,23,16,26,25.10
2015,06,23,16,27,25.10
2015,06,23,16,28,25.10
2015,06,23,16,29,25.10
2015,06,23,16,30,25.10
2015,06,23,16,31,25.10
2015,06,23,16,32,25.10
2015,06,23,16,33,25.20
2015,06,23,16,34,25.30
2015,06,23,16,35,25.40
2015,06,23,16,36,25.50
2015,06,23,16,37,25.50
2015,06,23,16,38,25.50
2015,06,23,16,39,25.40
2015,06,23,16,40,25.30
2015,06,23,16,41,25.30
2015,06,23,16,42,25.20
2015,06,23,16,43,25.20
2015,06,23,16,44,25.20
2015,06,23,16,45,25.10
2015,06,23,16,46,25.10
2015,06,23,16,47,25.10
2015,06,23,16,48,25.10
2015,06,23,16,49,25.10
2015,06,23,16,50,25.10
2015,06,23,16,51,25.10
2015,06,23,16,52,25.00
2015,06,23,16,53,24.90
2015,06,23,16,54,24.80
2015,06,23,16,55,24.70
2015,06,23,16,56,24.60
2015,06,23,16,57,24.50
2015,06,23,16,58,24.50
2015,06,23,16,59,24.40
2015,06,23,17,00,24.30
2015,06,23,17,01,24.40
2015,06,23,17,02,24.40
2015,06,23,17,03,24.50
2015,06,23,17,04,24.60
2015,06,23,17,05,24.60
2015,06,23,17,06,24.60
2015,06,23,17,07,24.60
2015,06,23,17,08,24.60
2015,06,23,17,09,24.60
2015,06,23,17,10,24.60
2015,06,23,17,11,24.60
2015,06,23,17,12,24.50
2015,06,23,17,13,24.40
2015,06,23,17,14,24.40
2015,06,23,17,15,24.30
2015,06,23,17,16,24.40
2015,06,23,17,17,24.40
2015,06,23,17,18,24.40
2015,06,23,17,19,24.30
2015,06,23,17,20,24.20
2015,06,23,17,21,24.20
2015,06,23,17,22,24.20
2015,06,23,17,23,24.20
2015,06,23,17,24,24.20